Precipitable_Water
0.64 0.61 0.60 0.59 0.58 0.58 0.56 0.53 0.50 0.47 0.44 0.33 0.25 0.29 0.21 0.13 0.12 0.22 0.22 0.21 0.19 0.16 0.12 0.13 0.12 0.09 0.10 0.15 0.15 0.15 0.14 0.11 0.13 0.12 0.15 0.12 0.15 0.13 0.14 0.13 0.11 0.15 0.11 0.12 0.11 0.13 0.10 0.11 0.11 0.12 0.12 0.13 0.15 0.18 0.19 0.21 0.19 0.18 0.15 0.17 0.19 0.19 0.12 0.12 0.13 0.15 0.18 0.19 0.20 0.21 0.21 0.20 0.19 0.18 0.18 0.17 0.15 0.17 0.16 0.17 0.19 0.17 0.17 0.17 0.17 0.16 0.19
0.64 0.61 0.60 0.59 0.59 0.56 0.53 0.50 0.47 0.46 0.44 0.31 0.26 0.23 0.14 0.13 0.13 0.16 0.23 0.24 0.16 0.15 0.05 0.07 0.08 0.09 0.12 0.12 0.12 0.14 0.13 0.13 0.12 0.13 0.14 0.13 0.12 0.12 0.13 0.15 0.16 0.12 0.15 0.13 0.11 0.14 0.08 0.16 0.12 0.11 0.13 0.12 0.21 0.19 0.19 0.21 0.17 0.16 0.16 0.14 0.20 0.13 0.16 0.14 0.11 0.11 0.12 0.14 0.17 0.17 0.20 0.19 0.17 0.16 0.18 0.19 0.21 0.21 0.22 0.22 0.22 0.18 0.18 0.19 0.18 0.15 0.19
0.64 0.62 0.61 0.60 0.57 0.53 0.50 0.46 0.44 0.43 0.37 0.32 0.26 0.14 0.14 0.15 0.20 0.14 0.16 0.18 0.17 0.11 0.10 0.10 0.08 0.08 0.08 0.09 0.09 0.09 0.13 0.15 0.15 0.14 0.14 0.16 0.15 0.13 0.13 0.14 0.14 0.14 0.16 0.13 0.14 0.15 0.12 0.10 0.13 0.13 0.13 0.13 0.19 0.20 0.20 0.21 0.19 0.22 0.23 0.22 0.24 0.16 0.15 0.14 0.10 0.08 0.07 0.07 0.08 0.10 0.12 0.14 0.17 0.19 0.21 0.22 0.22 0.22 0.21 0.18 0.20 0.17 0.20 0.22 0.19 0.19 0.23
0.61 0.60 0.58 0.55 0.52 0.48 0.45 0.44 0.40 0.34 0.33 0.31 0.25 0.17 0.16 0.10 0.07 0.13 0.17 0.16 0.14 0.12 0.15 0.11 0.09 0.10 0.08 0.09 0.10 0.11 0.11 0.16 0.16 0.17 0.16 0.17 0.16 0.15 0.15 0.17 0.16 0.13 0.14 0.13 0.14 0.15 0.17 0.13 0.11 0.12 0.12 0.15 0.18 0.19 0.22 0.22 0.23 0.23 0.24 0.23 0.22 0.16 0.17 0.15 0.13 0.11 0.10 0.11 0.13 0.17 0.19 0.18 0.17 0.20 0.21 0.22 0.24 0.25 0.24 0.23 0.20 0.19 0.21 0.20 0.21 0.22 0.21
0.59 0.57 0.53 0.49 0.46 0.43 0.41 0.35 0.32 0.32 0.31 0.30 0.21 0.22 0.11 0.13 0.09 0.07 0.07 0.13 0.16 0.11 0.14 0.11 0.11 0.09 0.11 0.09 0.10 0.09 0.11 0.13 0.16 0.19 0.14 0.18 0.16 0.16 0.16 0.15 0.14 0.15 0.15 0.13 0.12 0.15 0.14 0.16 0.15 0.14 0.14 0.17 0.18 0.22 0.23 0.24 0.24 0.24 0.23 0.24 0.20 0.16 0.12 0.14 0.14 0.14 0.15 0.17 0.18 0.20 0.21 0.19 0.20 0.20 0.21 0.24 0.25 0.25 0.23 0.21 0.20 0.24 0.20 0.16 0.21 0.21 0.17
0.55 0.50 0.46 0.44 0.41 0.35 0.31 0.31 0.29 0.29 0.29 0.29 0.26 0.14 0.13 0.10 0.11 0.14 0.12 0.09 0.08 0.09 0.11 0.13 0.13 0.13 0.15 0.11 0.13 0.11 0.11 0.13 0.11 0.17 0.17 0.17 0.19 0.14 0.18 0.16 0.16 0.15 0.14 0.14 0.11 0.13 0.13 0.15 0.15 0.18 0.18 0.17 0.19 0.19 0.25 0.22 0.23 0.23 0.20 0.21 0.17 0.14 0.11 0.16 0.17 0.18 0.20 0.21 0.21 0.22 0.22 0.22 0.22 0.23 0.24 0.23 0.25 0.25 0.22 0.22 0.22 0.21 0.17 0.14 0.16 0.16 0.14
0.45 0.43 0.42 0.36 0.31 0.30 0.29 0.28 0.27 0.28 0.27 0.28 0.20 0.15 0.17 0.14 0.14 0.14 0.17 0.13 0.13 0.12 0.13 0.14 0.14 0.14 0.13 0.13 0.13 0.12 0.13 0.13 0.14 0.13 0.14 0.18 0.17 0.17 0.12 0.15 0.16 0.15 0.16 0.14 0.13 0.15 0.13 0.14 0.18 0.16 0.16 0.16 0.16 0.15 0.18 0.22 0.22 0.20 0.18 0.18 0.19 0.17 0.16 0.20 0.21 0.19 0.20 0.22 0.23 0.24 0.23 0.23 0.24 0.23 0.24 0.23 0.22 0.21 0.20 0.19 0.18 0.17 0.15 0.16 0.15 0.14 0.14
0.41 0.35 0.31 0.30 0.28 0.27 0.27 0.27 0.27 0.27 0.28 0.29 0.26 0.19 0.16 0.16 0.15 0.16 0.16 0.17 0.15 0.14 0.14 0.14 0.15 0.14 0.14 0.13 0.14 0.13 0.13 0.13 0.15 0.18 0.15 0.13 0.16 0.18 0.15 0.16 0.16 0.17 0.17 0.17 0.15 0.18 0.18 0.17 0.15 0.17 0.16 0.15 0.16 0.14 0.14 0.14 0.18 0.19 0.18 0.20 0.23 0.20 0.18 0.21 0.20 0.19 0.20 0.23 0.24 0.24 0.24 0.24 0.22 0.23 0.22 0.22 0.19 0.18 0.17 0.16 0.16 0.16 0.15 0.15 0.14 0.13 0.13
0.31 0.30 0.28 0.27 0.27 0.28 0.28 0.29 0.31 0.31 0.34 0.30 0.22 0.22 0.22 0.20 0.21 0.21 0.17 0.16 0.16 0.15 0.14 0.14 0.14 0.15 0.15 0.13 0.15 0.15 0.16 0.15 0.16 0.16 0.20 0.16 0.15 0.16 0.15 0.17 0.16 0.18 0.19 0.19 0.18 0.22 0.20 0.19 0.19 0.20 0.18 0.13 0.17 0.14 0.14 0.18 0.17 0.21 0.22 0.23 0.23 0.22 0.19 0.23 0.22 0.19 0.20 0.23 0.24 0.24 0.24 0.23 0.21 0.20 0.20 0.17 0.15 0.14 0.15 0.14 0.15 0.14 0.12 0.13 0.13 0.13 0.14
0.28 0.27 0.28 0.29 0.31 0.32 0.33 0.34 0.35 0.34 0.37 0.26 0.23 0.23 0.27 0.24 0.25 0.24 0.19 0.15 0.16 0.14 0.15 0.16 0.16 0.14 0.14 0.15 0.16 0.14 0.16 0.17 0.17 0.14 0.20 0.18 0.18 0.18 0.18 0.18 0.18 0.18 0.19 0.18 0.20 0.21 0.21 0.21 0.21 0.21 0.21 0.21 0.20 0.21 0.22 0.24 0.22 0.22 0.23 0.24 0.22 0.23 0.22 0.21 0.22 0.19 0.19 0.22 0.24 0.23 0.22 0.20 0.16 0.17 0.16 0.15 0.15 0.15 0.16 0.16 0.16 0.16 0.15 0.13 0.13 0.14 0.17
0.29 0.30 0.32 0.33 0.35 0.36 0.36 0.37 0.37 0.36 0.35 0.29 0.27 0.25 0.23 0.23 0.23 0.21 0.20 0.14 0.18 0.14 0.14 0.15 0.14 0.15 0.18 0.18 0.16 0.19 0.18 0.18 0.18 0.12 0.14 0.20 0.20 0.21 0.21 0.19 0.18 0.17 0.18 0.21 0.25 0.25 0.24 0.24 0.23 0.22 0.22 0.22 0.23 0.25 0.27 0.26 0.26 0.25 0.23 0.23 0.25 0.25 0.24 0.22 0.24 0.19 0.20 0.22 0.21 0.20 0.16 0.11 0.12 0.15 0.17 0.16 0.14 0.15 0.14 0.14 0.15 0.17 0.18 0.17 0.18 0.18 0.18
0.32 0.35 0.36 0.38 0.38 0.37 0.37 0.36 0.36 0.37 0.36 0.34 0.31 0.28 0.28 0.26 0.25 0.20 0.18 0.14 0.16 0.15 0.15 0.14 0.15 0.16 0.16 0.17 0.17 0.16 0.16 0.16 0.16 0.19 0.15 0.18 0.21 0.23 0.22 0.22 0.21 0.16 0.24 0.29 0.27 0.25 0.24 0.23 0.24 0.24 0.24 0.26 0.27 0.27 0.27 0.25 0.25 0.26 0.28 0.26 0.25 0.25 0.25 0.24 0.25 0.21 0.18 0.18 0.17 0.12 0.09 0.11 0.15 0.17 0.18 0.18 0.17 0.17 0.16 0.17 0.18 0.18 0.18 0.17 0.17 0.17 0.17
0.37 0.38 0.39 0.38 0.37 0.36 0.36 0.36 0.35 0.34 0.36 0.34 0.33 0.28 0.26 0.27 0.24 0.20 0.19 0.16 0.16 0.15 0.15 0.16 0.17 0.17 0.17 0.17 0.17 0.18 0.18 0.19 0.20 0.20 0.21 0.19 0.20 0.23 0.23 0.20 0.19 0.23 0.29 0.26 0.26 0.23 0.17 0.17 0.19 0.21 0.22 0.25 0.26 0.26 0.25 0.25 0.26 0.29 0.29 0.29 0.26 0.24 0.24 0.24 0.22 0.20 0.18 0.14 0.12 0.07 0.09 0.15 0.17 0.17 0.18 0.19 0.19 0.19 0.17 0.14 0.17 0.18 0.17 0.17 0.16 0.17 0.17
0.38 0.38 0.38 0.36 0.35 0.35 0.34 0.34 0.33 0.35 0.34 0.35 0.29 0.26 0.27 0.27 0.24 0.23 0.21 0.17 0.17 0.17 0.18 0.19 0.18 0.17 0.17 0.17 0.17 0.19 0.20 0.19 0.19 0.21 0.18 0.22 0.20 0.21 0.24 0.25 0.26 0.30 0.29 0.28 0.22 0.20 0.16 0.18 0.16 0.17 0.18 0.20 0.21 0.22 0.24 0.26 0.28 0.28 0.28 0.28 0.29 0.26 0.24 0.23 0.16 0.18 0.11 0.11 0.11 0.10 0.14 0.14 0.15 0.15 0.17 0.18 0.16 0.17 0.16 0.13 0.15 0.18 0.18 0.18 0.17 0.16 0.15
0.37 0.36 0.34 0.34 0.34 0.34 0.35 0.34 0.35 0.34 0.35 0.35 0.33 0.30 0.29 0.28 0.27 0.26 0.25 0.21 0.17 0.18 0.19 0.14 0.16 0.17 0.18 0.18 0.18 0.17 0.19 0.19 0.18 0.18 0.20 0.22 0.20 0.24 0.25 0.28 0.31 0.30 0.29 0.22 0.19 0.19 0.17 0.16 0.14 0.13 0.16 0.17 0.15 0.18 0.25 0.24 0.27 0.29 0.28 0.27 0.27 0.26 0.20 0.19 0.15 0.14 0.15 0.11 0.08 0.08 0.09 0.08 0.12 0.17 0.20 0.22 0.22 0.21 0.19 0.17 0.14 0.18 0.19 0.19 0.16 0.13 0.12
0.35 0.34 0.34 0.35 0.35 0.36 0.36 0.37 0.37 0.37 0.36 0.38 0.35 0.31 0.32 0.34 0.33 0.33 0.27 0.21 0.19 0.15 0.18 0.19 0.21 0.19 0.18 0.19 0.19 0.17 0.16 0.17 0.17 0.17 0.18 0.20 0.22 0.24 0.28 0.30 0.30 0.30 0.26 0.22 0.19 0.17 0.16 0.14 0.14 0.16 0.16 0.18 0.20 0.20 0.20 0.23 0.22 0.26 0.27 0.26 0.25 0.23 0.21 0.18 0.15 0.13 0.12 0.10 0.08 0.08 0.08 0.10 0.15 0.17 0.20 0.21 0.22 0.19 0.18 0.14 0.09 0.17 0.18 0.15 0.14 0.13 0.12
0.35 0.35 0.36 0.38 0.38 0.38 0.39 0.39 0.39 0.39 0.38 0.39 0.36 0.34 0.30 0.37 0.32 0.28 0.26 0.23 0.18 0.15 0.23 0.23 0.23 0.22 0.21 0.20 0.22 0.19 0.18 0.17 0.17 0.16 0.15 0.18 0.20 0.22 0.25 0.28 0.30 0.28 0.24 0.20 0.19 0.17 0.17 0.18 0.20 0.20 0.20 0.22 0.19 0.19 0.21 0.20 0.18 0.19 0.23 0.23 0.20 0.16 0.15 0.14 0.11 0.10 0.11 0.10 0.09 0.09 0.11 0.12 0.16 0.19 0.19 0.20 0.20 0.17 0.13 0.06 0.06 0.12 0.14 0.16 0.15 0.13 0.12
0.36 0.36 0.37 0.38 0.38 0.38 0.39 0.38 0.38 0.37 0.37 0.39 0.36 0.31 0.30 0.36 0.34 0.32 0.28 0.21 0.18 0.18 0.23 0.25 0.22 0.20 0.19 0.18 0.19 0.21 0.22 0.22 0.21 0.21 0.19 0.20 0.22 0.22 0.22 0.25 0.22 0.27 0.26 0.18 0.19 0.19 0.20 0.20 0.19 0.19 0.18 0.22 0.22 0.22 0.16 0.18 0.16 0.16 0.15 0.15 0.14 0.12 0.12 0.13 0.10 0.10 0.10 0.11 0.11 0.12 0.14 0.18 0.19 0.19 0.19 0.18 0.17 0.12 0.07 0.05 0.10 0.14 0.15 0.15 0.13 0.12 0.11
0.35 0.35 0.35 0.35 0.35 0.35 0.35 0.34 0.33 0.32 0.33 0.33 0.34 0.37 0.30 0.34 0.35 0.32 0.27 0.21 0.20 0.17 0.25 0.28 0.29 0.24 0.26 0.29 0.24 0.24 0.24 0.21 0.21 0.19 0.18 0.19 0.20 0.23 0.24 0.25 0.25 0.19 0.24 0.21 0.23 0.22 0.21 0.21 0.23 0.21 0.19 0.20 0.21 0.17 0.19 0.16 0.15 0.17 0.16 0.13 0.12 0.11 0.12 0.13 0.12 0.11 0.10 0.11 0.11 0.11 0.13 0.17 0.19 0.19 0.18 0.18 0.11 0.06 0.06 0.13 0.17 0.16 0.14 0.13 0.12 0.10 0.10
0.34 0.34 0.34 0.34 0.33 0.33 0.33 0.33 0.32 0.31 0.30 0.31 0.30 0.24 0.27 0.33 0.35 0.31 0.26 0.19 0.21 0.19 0.24 0.25 0.26 0.22 0.27 0.24 0.23 0.22 0.23 0.25 0.22 0.20 0.18 0.16 0.23 0.25 0.24 0.20 0.25 0.24 0.24 0.26 0.22 0.24 0.21 0.19 0.19 0.21 0.19 0.19 0.19 0.20 0.17 0.17 0.18 0.15 0.14 0.14 0.11 0.11 0.10 0.10 0.11 0.13 0.13 0.13 0.11 0.10 0.08 0.14 0.19 0.17 0.14 0.16 0.10 0.11 0.16 0.16 0.15 0.15 0.13 0.11 0.10 0.11 0.11
0.33 0.32 0.31 0.31 0.32 0.32 0.31 0.31 0.31 0.30 0.30 0.30 0.31 0.30 0.25 0.31 0.33 0.34 0.35 0.27 0.21 0.19 0.21 0.30 0.30 0.27 0.28 0.27 0.28 0.28 0.25 0.20 0.21 0.20 0.22 0.23 0.26 0.24 0.17 0.18 0.22 0.24 0.23 0.25 0.20 0.20 0.20 0.19 0.20 0.19 0.21 0.19 0.19 0.19 0.15 0.14 0.15 0.18 0.16 0.13 0.12 0.14 0.11 0.11 0.13 0.16 0.12 0.11 0.10 0.10 0.14 0.17 0.19 0.16 0.11 0.14 0.16 0.18 0.16 0.14 0.11 0.12 0.12 0.11 0.10 0.11 0.10
0.30 0.29 0.29 0.29 0.29 0.29 0.29 0.29 0.30 0.29 0.30 0.30 0.32 0.32 0.23 0.27 0.31 0.31 0.30 0.30 0.24 0.20 0.23 0.28 0.30 0.28 0.31 0.33 0.32 0.32 0.31 0.30 0.31 0.32 0.26 0.24 0.29 0.26 0.26 0.27 0.26 0.28 0.28 0.27 0.23 0.22 0.23 0.22 0.22 0.20 0.18 0.18 0.20 0.16 0.16 0.14 0.11 0.14 0.17 0.15 0.11 0.15 0.14 0.15 0.13 0.16 0.14 0.11 0.12 0.15 0.18 0.18 0.18 0.16 0.15 0.17 0.18 0.17 0.14 0.12 0.12 0.11 0.11 0.11 0.10 0.09 0.09
0.28 0.27 0.27 0.27 0.27 0.27 0.27 0.27 0.28 0.28 0.29 0.31 0.32 0.28 0.22 0.25 0.28 0.31 0.31 0.22 0.26 0.28 0.30 0.29 0.31 0.32 0.34 0.34 0.37 0.37 0.38 0.39 0.38 0.36 0.35 0.29 0.28 0.29 0.27 0.28 0.29 0.32 0.30 0.29 0.24 0.23 0.23 0.22 0.19 0.20 0.18 0.18 0.17 0.15 0.15 0.14 0.12 0.14 0.12 0.15 0.15 0.18 0.18 0.18 0.17 0.16 0.16 0.15 0.16 0.17 0.16 0.16 0.15 0.15 0.18 0.16 0.14 0.12 0.12 0.12 0.11 0.11 0.11 0.10 0.10 0.09 0.08
0.26 0.26 0.26 0.26 0.26 0.26 0.26 0.27 0.28 0.29 0.29 0.30 0.31 0.26 0.25 0.27 0.28 0.30 0.28 0.26 0.23 0.21 0.26 0.29 0.28 0.23 0.25 0.26 0.33 0.38 0.39 0.38 0.38 0.39 0.42 0.38 0.27 0.27 0.33 0.33 0.32 0.31 0.28 0.29 0.29 0.24 0.23 0.22 0.20 0.21 0.16 0.18 0.19 0.15 0.12 0.11 0.12 0.14 0.14 0.13 0.16 0.18 0.19 0.16 0.13 0.14 0.11 0.08 0.13 0.13 0.14 0.15 0.14 0.16 0.17 0.14 0.12 0.11 0.12 0.11 0.11 0.11 0.10 0.10 0.10 0.10 0.09
0.27 0.27 0.26 0.26 0.26 0.26 0.26 0.27 0.27 0.27 0.28 0.29 0.30 0.30 0.28 0.27 0.28 0.29 0.28 0.20 0.21 0.22 0.18 0.21 0.24 0.29 0.34 0.37 0.39 0.37 0.39 0.41 0.43 0.41 0.40 0.39 0.35 0.29 0.27 0.31 0.33 0.28 0.26 0.27 0.29 0.26 0.25 0.20 0.20 0.19 0.15 0.19 0.19 0.13 0.16 0.13 0.13 0.16 0.13 0.14 0.15 0.15 0.18 0.14 0.13 0.12 0.10 0.10 0.12 0.14 0.16 0.15 0.16 0.16 0.13 0.11 0.10 0.11 0.12 0.12 0.12 0.12 0.11 0.10 0.10 0.10 0.09
0.28 0.27 0.27 0.26 0.27 0.27 0.27 0.27 0.27 0.28 0.28 0.28 0.31 0.29 0.28 0.29 0.31 0.31 0.32 0.28 0.27 0.26 0.21 0.19 0.24 0.35 0.37 0.36 0.33 0.37 0.41 0.41 0.41 0.40 0.39 0.39 0.38 0.36 0.31 0.32 0.32 0.35 0.30 0.29 0.26 0.23 0.21 0.21 0.20 0.19 0.16 0.15 0.20 0.15 0.14 0.15 0.15 0.17 0.15 0.15 0.16 0.16 0.17 0.11 0.12 0.11 0.11 0.13 0.13 0.15 0.15 0.15 0.14 0.14 0.12 0.10 0.11 0.11 0.12 0.11 0.10 0.11 0.11 0.10 0.09 0.09 0.08
0.27 0.26 0.26 0.26 0.26 0.26 0.26 0.27 0.27 0.28 0.29 0.30 0.31 0.31 0.28 0.29 0.33 0.31 0.28 0.27 0.24 0.22 0.24 0.22 0.26 0.31 0.35 0.32 0.38 0.41 0.41 0.40 0.40 0.39 0.39 0.38 0.35 0.35 0.33 0.31 0.29 0.29 0.27 0.25 0.25 0.24 0.22 0.20 0.19 0.16 0.17 0.16 0.19 0.17 0.17 0.16 0.16 0.15 0.15 0.17 0.18 0.15 0.11 0.13 0.12 0.09 0.09 0.10 0.11 0.13 0.09 0.09 0.11 0.11 0.10 0.10 0.11 0.12 0.11 0.10 0.10 0.10 0.09 0.08 0.07 0.07 0.08
0.26 0.26 0.26 0.26 0.26 0.26 0.27 0.27 0.27 0.28 0.30 0.31 0.32 0.31 0.32 0.30 0.32 0.34 0.35 0.34 0.31 0.23 0.24 0.24 0.26 0.30 0.38 0.34 0.38 0.39 0.39 0.39 0.39 0.37 0.34 0.33 0.33 0.33 0.32 0.30 0.28 0.25 0.24 0.24 0.20 0.20 0.19 0.16 0.15 0.18 0.18 0.19 0.17 0.15 0.18 0.19 0.19 0.16 0.16 0.15 0.16 0.12 0.12 0.12 0.10 0.09 0.09 0.12 0.14 0.14 0.13 0.12 0.11 0.10 0.10 0.11 0.12 0.11 0.10 0.10 0.09 0.09 0.08 0.07 0.07 0.07 0.06
0.27 0.26 0.27 0.26 0.27 0.27 0.28 0.28 0.28 0.29 0.30 0.32 0.32 0.30 0.30 0.33 0.37 0.36 0.37 0.38 0.38 0.29 0.28 0.28 0.32 0.30 0.25 0.29 0.39 0.37 0.39 0.38 0.35 0.33 0.32 0.31 0.31 0.31 0.29 0.29 0.26 0.26 0.25 0.24 0.22 0.21 0.19 0.19 0.21 0.18 0.17 0.20 0.18 0.16 0.18 0.14 0.14 0.13 0.14 0.16 0.15 0.15 0.15 0.14 0.13 0.13 0.14 0.15 0.14 0.14 0.12 0.10 0.09 0.09 0.10 0.11 0.11 0.11 0.10 0.10 0.09 0.08 0.08 0.07 0.07 0.07 0.07
0.27 0.27 0.27 0.27 0.27 0.28 0.28 0.29 0.30 0.31 0.32 0.32 0.31 0.28 0.26 0.27 0.34 0.35 0.38 0.37 0.36 0.32 0.27 0.25 0.23 0.25 0.34 0.35 0.32 0.35 0.33 0.33 0.31 0.31 0.30 0.29 0.29 0.28 0.28 0.27 0.26 0.27 0.25 0.23 0.22 0.18 0.19 0.18 0.19 0.20 0.22 0.25 0.18 0.18 0.16 0.15 0.13 0.14 0.16 0.15 0.15 0.15 0.15 0.15 0.15 0.14 0.12 0.15 0.14 0.13 0.11 0.09 0.10 0.11 0.11 0.11 0.11 0.11 0.10 0.09 0.08 0.08 0.07 0.07 0.07 0.07 0.07
0.28 0.28 0.27 0.27 0.28 0.28 0.29 0.30 0.32 0.33 0.32 0.30 0.30 0.24 0.22 0.22 0.30 0.38 0.36 0.37 0.38 0.35 0.29 0.28 0.25 0.29 0.29 0.33 0.32 0.28 0.27 0.28 0.28 0.28 0.28 0.28 0.28 0.28 0.29 0.29 0.27 0.26 0.22 0.22 0.21 0.20 0.21 0.17 0.18 0.19 0.23 0.23 0.20 0.17 0.15 0.14 0.12 0.13 0.13 0.14 0.14 0.13 0.13 0.14 0.15 0.15 0.15 0.14 0.12 0.11 0.09 0.09 0.10 0.11 0.10 0.11 0.11 0.11 0.09 0.08 0.08 0.08 0.07 0.07 0.07 0.07 0.07
0.30 0.29 0.29 0.29 0.28 0.30 0.31 0.32 0.32 0.33 0.33 0.29 0.26 0.26 0.26 0.28 0.33 0.36 0.38 0.37 0.37 0.34 0.26 0.24 0.24 0.24 0.23 0.25 0.26 0.28 0.28 0.27 0.28 0.28 0.27 0.28 0.25 0.27 0.26 0.26 0.23 0.26 0.24 0.21 0.21 0.20 0.18 0.20 0.19 0.19 0.19 0.21 0.20 0.17 0.16 0.14 0.11 0.10 0.13 0.13 0.13 0.13 0.14 0.14 0.14 0.15 0.15 0.13 0.10 0.09 0.08 0.09 0.10 0.10 0.09 0.11 0.11 0.10 0.08 0.08 0.08 0.07 0.07 0.07 0.07 0.07 0.07
0.31 0.31 0.30 0.30 0.30 0.30 0.32 0.32 0.33 0.34 0.32 0.34 0.36 0.37 0.37 0.38 0.37 0.37 0.37 0.37 0.36 0.29 0.31 0.26 0.19 0.19 0.19 0.20 0.25 0.26 0.27 0.26 0.25 0.25 0.22 0.26 0.23 0.26 0.23 0.26 0.25 0.23 0.26 0.23 0.18 0.17 0.20 0.20 0.20 0.19 0.21 0.23 0.18 0.16 0.14 0.12 0.11 0.13 0.13 0.13 0.13 0.14 0.14 0.15 0.15 0.15 0.13 0.11 0.10 0.08 0.08 0.09 0.10 0.11 0.11 0.10 0.09 0.09 0.08 0.07 0.07 0.07 0.07 0.07 0.07 0.07 0.07
0.33 0.32 0.31 0.30 0.31 0.31 0.31 0.32 0.33 0.36 0.39 0.35 0.27 0.29 0.33 0.35 0.37 0.37 0.38 0.39 0.30 0.27 0.25 0.20 0.16 0.16 0.17 0.24 0.20 0.22 0.27 0.21 0.21 0.23 0.20 0.24 0.25 0.24 0.21 0.23 0.23 0.19 0.22 0.19 0.20 0.20 0.20 0.21 0.19 0.19 0.21 0.18 0.19 0.15 0.11 0.11 0.13 0.13 0.13 0.13 0.14 0.14 0.14 0.14 0.14 0.13 0.11 0.10 0.10 0.10 0.11 0.11 0.11 0.11 0.10 0.09 0.09 0.08 0.08 0.07 0.07 0.06 0.06 0.06 0.06 0.07 0.07
0.34 0.32 0.31 0.32 0.32 0.33 0.34 0.34 0.33 0.32 0.28 0.29 0.30 0.33 0.35 0.34 0.35 0.37 0.36 0.31 0.24 0.18 0.18 0.18 0.18 0.15 0.15 0.18 0.18 0.20 0.25 0.23 0.19 0.21 0.19 0.21 0.25 0.21 0.22 0.20 0.21 0.18 0.18 0.24 0.20 0.20 0.19 0.19 0.20 0.17 0.15 0.18 0.15 0.11 0.11 0.12 0.13 0.13 0.13 0.13 0.14 0.14 0.13 0.13 0.13 0.11 0.10 0.10 0.10 0.10 0.11 0.11 0.10 0.09 0.09 0.08 0.08 0.07 0.07 0.07 0.07 0.06 0.06 0.06 0.06 0.06 0.07
0.32 0.31 0.32 0.32 0.33 0.33 0.32 0.32 0.30 0.29 0.28 0.27 0.29 0.35 0.37 0.37 0.36 0.34 0.33 0.30 0.23 0.17 0.16 0.17 0.18 0.15 0.16 0.13 0.13 0.19 0.25 0.22 0.22 0.23 0.21 0.22 0.21 0.24 0.22 0.20 0.16 0.19 0.22 0.20 0.17 0.20 0.18 0.20 0.18 0.14 0.18 0.14 0.12 0.12 0.12 0.14 0.13 0.13 0.13 0.13 0.14 0.14 0.13 0.13 0.12 0.11 0.10 0.10 0.10 0.11 0.11 0.10 0.09 0.09 0.08 0.08 0.07 0.07 0.07 0.06 0.06 0.06 0.06 0.06 0.06 0.06 0.06
0.30 0.30 0.31 0.31 0.32 0.32 0.26 0.26 0.30 0.29 0.29 0.33 0.35 0.37 0.36 0.37 0.39 0.38 0.28 0.23 0.24 0.24 0.19 0.18 0.16 0.16 0.16 0.16 0.20 0.22 0.22 0.17 0.22 0.20 0.20 0.18 0.17 0.22 0.20 0.19 0.16 0.19 0.20 0.18 0.18 0.17 0.19 0.23 0.18 0.14 0.14 0.12 0.13 0.15 0.15 0.15 0.14 0.14 0.14 0.14 0.15 0.14 0.14 0.14 0.12 0.11 0.10 0.09 0.09 0.10 0.10 0.09 0.08 0.08 0.08 0.07 0.07 0.07 0.06 0.06 0.06 0.06 0.05 0.06 0.06 0.06 0.06
0.30 0.30 0.29 0.26 0.25 0.22 0.23 0.26 0.27 0.32 0.35 0.34 0.34 0.32 0.33 0.33 0.26 0.27 0.24 0.20 0.22 0.22 0.20 0.20 0.17 0.18 0.21 0.19 0.16 0.23 0.21 0.18 0.23 0.17 0.19 0.20 0.19 0.17 0.20 0.18 0.17 0.19 0.13 0.15 0.17 0.21 0.19 0.17 0.15 0.13 0.13 0.16 0.17 0.16 0.16 0.16 0.16 0.16 0.15 0.15 0.15 0.14 0.14 0.14 0.11 0.10 0.09 0.08 0.08 0.09 0.09 0.08 0.08 0.08 0.07 0.07 0.07 0.06 0.06 0.06 0.06 0.06 0.06 0.06 0.06 0.06 0.06
0.28 0.26 0.25 0.24 0.23 0.20 0.22 0.26 0.35 0.34 0.33 0.33 0.33 0.27 0.26 0.28 0.24 0.21 0.20 0.21 0.20 0.18 0.21 0.19 0.17 0.20 0.18 0.17 0.19 0.27 0.21 0.18 0.17 0.18 0.15 0.20 0.16 0.13 0.18 0.14 0.18 0.18 0.14 0.14 0.16 0.20 0.13 0.14 0.14 0.13 0.11 0.14 0.14 0.15 0.17 0.17 0.16 0.16 0.16 0.16 0.15 0.15 0.15 0.13 0.11 0.10 0.09 0.09 0.09 0.10 0.09 0.08 0.07 0.07 0.07 0.07 0.07 0.06 0.07 0.06 0.06 0.06 0.06 0.06 0.06 0.06 0.06
0.27 0.23 0.21 0.22 0.20 0.22 0.28 0.32 0.33 0.32 0.31 0.27 0.29 0.27 0.22 0.23 0.18 0.17 0.23 0.18 0.17 0.19 0.20 0.18 0.20 0.20 0.20 0.18 0.18 0.19 0.26 0.20 0.15 0.14 0.16 0.18 0.23 0.15 0.17 0.17 0.17 0.15 0.12 0.12 0.14 0.18 0.13 0.10 0.12 0.11 0.11 0.14 0.15 0.16 0.17 0.17 0.16 0.16 0.16 0.16 0.16 0.16 0.15 0.12 0.11 0.11 0.11 0.11 0.11 0.10 0.10 0.09 0.08 0.08 0.07 0.07 0.06 0.06 0.06 0.06 0.06 0.06 0.06 0.06 0.06 0.06 0.06
0.23 0.23 0.23 0.20 0.23 0.27 0.28 0.31 0.32 0.31 0.28 0.25 0.24 0.24 0.20 0.18 0.20 0.20 0.19 0.17 0.16 0.17 0.23 0.20 0.21 0.19 0.21 0.21 0.21 0.18 0.25 0.25 0.22 0.22 0.19 0.15 0.21 0.20 0.16 0.13 0.17 0.13 0.12 0.12 0.15 0.16 0.14 0.12 0.11 0.10 0.11 0.14 0.15 0.16 0.17 0.16 0.15 0.15 0.15 0.16 0.16 0.15 0.14 0.12 0.11 0.11 0.11 0.11 0.10 0.10 0.09 0.09 0.08 0.08 0.08 0.07 0.07 0.06 0.06 0.06 0.06 0.06 0.06 0.06 0.06 0.06 0.06
0.26 0.25 0.26 0.28 0.28 0.29 0.29 0.30 0.28 0.25 0.27 0.26 0.20 0.17 0.18 0.18 0.21 0.19 0.19 0.16 0.16 0.19 0.21 0.21 0.18 0.18 0.19 0.21 0.20 0.22 0.21 0.25 0.22 0.19 0.17 0.13 0.17 0.16 0.14 0.15 0.16 0.12 0.10 0.14 0.16 0.14 0.13 0.09 0.09 0.09 0.13 0.15 0.16 0.16 0.16 0.15 0.15 0.14 0.15 0.16 0.16 0.15 0.13 0.11 0.11 0.11 0.12 0.11 0.10 0.09 0.09 0.08 0.08 0.08 0.08 0.07 0.07 0.07 0.06 0.06 0.06 0.06 0.06 0.06 0.07 0.06 0.06
0.29 0.28 0.28 0.24 0.24 0.24 0.24 0.22 0.24 0.25 0.18 0.17 0.16 0.15 0.16 0.15 0.17 0.16 0.17 0.22 0.24 0.21 0.21 0.25 0.23 0.25 0.26 0.26 0.22 0.24 0.20 0.23 0.18 0.16 0.15 0.13 0.17 0.18 0.14 0.14 0.13 0.10 0.12 0.16 0.14 0.11 0.10 0.09 0.08 0.11 0.14 0.15 0.15 0.15 0.16 0.15 0.15 0.15 0.16 0.16 0.16 0.15 0.12 0.11 0.11 0.11 0.12 0.11 0.10 0.09 0.09 0.08 0.08 0.08 0.08 0.07 0.07 0.06 0.06 0.06 0.06 0.06 0.06 0.06 0.06 0.06 0.06
0.27 0.26 0.22 0.22 0.21 0.21 0.22 0.16 0.23 0.21 0.18 0.18 0.15 0.13 0.15 0.15 0.17 0.18 0.17 0.20 0.21 0.21 0.22 0.19 0.20 0.20 0.17 0.23 0.20 0.20 0.20 0.22 0.20 0.17 0.16 0.16 0.15 0.12 0.12 0.11 0.11 0.14 0.17 0.13 0.12 0.09 0.09 0.10 0.11 0.12 0.14 0.15 0.15 0.16 0.15 0.15 0.14 0.15 0.16 0.16 0.16 0.13 0.12 0.11 0.11 0.11 0.10 0.10 0.09 0.09 0.09 0.08 0.08 0.08 0.07 0.07 0.07 0.06 0.06 0.06 0.06 0.07 0.07 0.06 0.06 0.06 0.06
0.21 0.20 0.20 0.19 0.18 0.19 0.19 0.15 0.22 0.18 0.14 0.15 0.18 0.16 0.16 0.15 0.17 0.18 0.19 0.23 0.23 0.20 0.23 0.23 0.22 0.20 0.18 0.21 0.21 0.21 0.19 0.15 0.20 0.14 0.11 0.14 0.12 0.13 0.11 0.11 0.13 0.14 0.11 0.09 0.10 0.10 0.10 0.09 0.13 0.14 0.14 0.14 0.15 0.15 0.15 0.14 0.15 0.15 0.15 0.16 0.14 0.12 0.11 0.11 0.11 0.11 0.10 0.09 0.09 0.09 0.08 0.08 0.08 0.07 0.07 0.07 0.07 0.07 0.06 0.06 0.06 0.06 0.06 0.06 0.06 0.06 0.06
0.20 0.18 0.18 0.15 0.14 0.18 0.17 0.15 0.17 0.16 0.19 0.19 0.17 0.18 0.18 0.19 0.19 0.20 0.24 0.26 0.23 0.23 0.21 0.21 0.21 0.21 0.19 0.21 0.17 0.16 0.17 0.16 0.14 0.13 0.14 0.14 0.11 0.10 0.13 0.16 0.15 0.10 0.10 0.10 0.08 0.07 0.08 0.10 0.12 0.13 0.14 0.14 0.15 0.15 0.15 0.15 0.16 0.16 0.16 0.14 0.13 0.12 0.11 0.11 0.11 0.10 0.09 0.09 0.09 0.08 0.08 0.08 0.07 0.07 0.07 0.07 0.06 0.06 0.06 0.06 0.06 0.06 0.06 0.06 0.06 0.06 0.06
0.20 0.21 0.20 0.19 0.15 0.17 0.21 0.15 0.16 0.18 0.19 0.20 0.20 0.21 0.20 0.21 0.23 0.24 0.25 0.25 0.23 0.24 0.23 0.23 0.22 0.21 0.18 0.18 0.17 0.17 0.17 0.16 0.13 0.14 0.14 0.11 0.11 0.12 0.16 0.11 0.09 0.09 0.08 0.08 0.08 0.08 0.09 0.11 0.13 0.14 0.15 0.15 0.14 0.14 0.14 0.15 0.16 0.16 0.15 0.14 0.13 0.12 0.11 0.11 0.10 0.10 0.09 0.09 0.08 0.08 0.08 0.08 0.07 0.07 0.07 0.06 0.06 0.06 0.06 0.06 0.06 0.06 0.06 0.06 0.06 0.06 0.06
0.17 0.20 0.21 0.14 0.14 0.17 0.16 0.18 0.21 0.21 0.21 0.20 0.21 0.22 0.23 0.24 0.24 0.23 0.25 0.26 0.25 0.24 0.22 0.21 0.19 0.19 0.19 0.22 0.19 0.15 0.15 0.14 0.13 0.12 0.13 0.12 0.13 0.11 0.10 0.10 0.09 0.10 0.10 0.09 0.08 0.11 0.11 0.13 0.14 0.14 0.15 0.15 0.14 0.14 0.15 0.15 0.16 0.16 0.15 0.14 0.12 0.12 0.11 0.11 0.10 0.10 0.09 0.09 0.08 0.08 0.08 0.08 0.07 0.07 0.07 0.06 0.06 0.06 0.06 0.06 0.06 0.06 0.06 0.06 0.06 0.06 0.06
0.21 0.19 0.16 0.16 0.18 0.19 0.18 0.20 0.20 0.18 0.19 0.20 0.21 0.22 0.23 0.23 0.23 0.25 0.26 0.26 0.25 0.23 0.23 0.21 0.19 0.18 0.16 0.18 0.16 0.14 0.12 0.14 0.11 0.11 0.12 0.12 0.10 0.09 0.09 0.08 0.09 0.09 0.10 0.10 0.10 0.11 0.13 0.15 0.15 0.15 0.14 0.14 0.14 0.15 0.15 0.16 0.16 0.15 0.14 0.13 0.12 0.12 0.11 0.11 0.10 0.10 0.09 0.09 0.08 0.08 0.08 0.08 0.07 0.07 0.07 0.06 0.06 0.06 0.06 0.06 0.06 0.06 0.06 0.06 0.06 0.06 0.06
0.18 0.18 0.20 0.18 0.18 0.19 0.21 0.22 0.20 0.17 0.19 0.19 0.21 0.21 0.23 0.24 0.24 0.25 0.27 0.25 0.25 0.23 0.23 0.22 0.23 0.18 0.17 0.16 0.13 0.13 0.12 0.13 0.12 0.12 0.11 0.10 0.10 0.11 0.10 0.09 0.10 0.09 0.10 0.12 0.12 0.13 0.15 0.15 0.14 0.14 0.14 0.14 0.15 0.15 0.15 0.16 0.16 0.15 0.14 0.13 0.12 0.11 0.11 0.10 0.10 0.09 0.09 0.09 0.08 0.08 0.08 0.07 0.07 0.07 0.06 0.06 0.06 0.06 0.06 0.06 0.06 0.06 0.06 0.06 0.06 0.05 0.05
0.21 0.19 0.18 0.21 0.18 0.17 0.19 0.16 0.16 0.16 0.17 0.18 0.20 0.21 0.23 0.23 0.24 0.25 0.28 0.26 0.24 0.22 0.20 0.17 0.17 0.16 0.15 0.13 0.12 0.10 0.11 0.14 0.12 0.11 0.10 0.10 0.12 0.11 0.10 0.09 0.10 0.11 0.12 0.14 0.15 0.15 0.14 0.14 0.14 0.14 0.14 0.14 0.15 0.16 0.16 0.16 0.16 0.15 0.14 0.13 0.12 0.11 0.11 0.10 0.10 0.09 0.09 0.08 0.08 0.08 0.07 0.07 0.07 0.07 0.07 0.07 0.06 0.06 0.06 0.06 0.06 0.06 0.06 0.06 0.06 0.05 0.05
0.18 0.16 0.16 0.20 0.22 0.21 0.20 0.20 0.20 0.19 0.19 0.20 0.22 0.24 0.25 0.24 0.26 0.27 0.28 0.26 0.23 0.19 0.17 0.18 0.17 0.15 0.13 0.12 0.12 0.13 0.15 0.12 0.11 0.11 0.09 0.11 0.13 0.10 0.10 0.11 0.12 0.13 0.14 0.13 0.14 0.14 0.14 0.14 0.14 0.14 0.14 0.15 0.15 0.16 0.16 0.16 0.15 0.14 0.14 0.13 0.12 0.11 0.11 0.10 0.10 0.09 0.09 0.08 0.08 0.08 0.08 0.07 0.07 0.07 0.07 0.06 0.06 0.06 0.05 0.05 0.05 0.06 0.06 0.06 0.06 0.06 0.05
Wind_Speed
9 9 10 10 10 11 12 13 14 14 14 12 11 10 8 7 7 7 9 9 8 7 6 7 7 8 8 9 9 10 10 10 11 11 11 12 12 12 12 13 13 14 14 15 15 15 15 15 15 16 16 16 17 18 20 20 20 20 19 19 20 20 20 20 22 21 19 19 19 19 18 18 18 19 19 19 19 19 20 21 22 23 24 23 23 22 21
8 9 9 10 11 12 13 13 13 13 12 11 10 9 7 7 7 7 8 9 8 7 6 8 9 8 8 9 10 10 11 11 11 11 12 12 13 13 13 13 14 14 14 15 16 16 16 15 15 17 17 17 18 19 20 20 20 20 19 20 20 19 18 20 21 20 19 17 17 17 18 19 20 20 19 19 19 21 22 22 22 23 23 22 23 23 22
8 9 10 11 12 12 12 12 12 12 11 10 9 8 7 7 7 6 8 9 8 6 7 9 10 9 9 10 10 10 11 11 12 12 12 13 13 14 14 14 15 15 15 16 17 16 16 17 17 17 18 18 18 19 19 19 19 19 19 20 19 19 18 19 19 18 18 18 17 18 20 21 21 20 20 21 21 21 22 22 21 22 23 23 24 25 26
8 10 11 12 12 12 12 11 11 10 10 10 9 8 7 7 7 7 8 8 8 7 8 10 10 10 10 10 11 11 11 11 12 13 13 13 14 14 15 15 15 16 16 17 18 17 16 17 18 18 19 18 18 19 19 19 19 19 19 19 18 18 18 18 18 18 19 20 20 21 22 23 22 21 21 22 21 21 22 21 21 22 24 24 24 26 30
10 11 12 12 12 11 11 10 10 9 10 10 9 8 7 7 7 7 8 8 8 8 9 11 10 10 11 10 11 12 12 11 12 13 13 14 15 16 16 16 17 17 18 18 18 18 17 17 17 18 18 18 18 18 18 18 18 18 18 18 17 18 18 18 18 19 20 21 23 23 22 23 22 22 22 21 20 20 20 20 21 23 24 24 24 28 32
11 11 11 11 10 10 9 9 9 9 9 10 9 8 7 7 7 8 8 9 9 9 10 11 11 10 11 11 11 12 13 13 14 15 15 15 16 16 16 17 17 18 18 18 18 18 18 16 16 17 17 18 18 17 17 17 16 17 17 17 17 18 18 18 18 19 21 22 23 22 21 21 21 21 22 21 19 19 19 20 22 23 23 26 28 31 33
10 10 9 9 9 9 9 9 9 9 10 9 8 7 7 7 8 8 9 9 9 10 10 11 11 11 11 11 12 13 14 15 15 15 16 16 16 17 17 17 17 17 17 17 17 17 17 16 16 16 16 17 17 17 17 16 16 17 17 17 17 17 17 18 18 20 22 22 21 20 20 19 19 20 21 20 20 20 20 21 23 25 26 28 31 34 33
9 8 8 8 9 9 9 9 10 10 10 9 8 7 8 8 8 9 9 9 9 10 10 11 11 11 12 12 13 15 15 15 16 16 17 17 17 17 17 17 17 16 16 16 16 15 15 15 16 16 16 17 17 16 17 16 16 17 16 17 17 17 17 18 19 20 21 19 19 20 19 18 18 19 20 20 20 21 22 23 25 27 28 30 33 34 32
7 8 8 8 9 9 10 10 10 10 9 8 8 8 8 8 9 9 10 10 10 10 10 11 12 12 13 14 15 15 15 16 17 17 17 17 17 16 16 16 16 14 13 14 14 14 15 15 16 16 16 17 17 17 17 17 17 16 16 17 17 17 19 20 20 21 20 19 19 20 19 18 18 19 20 21 21 22 23 25 27 29 31 33 33 33 33
7 8 8 9 10 10 10 10 10 10 9 8 8 8 8 9 9 10 10 10 10 10 11 12 12 13 13 15 15 15 16 16 17 17 16 15 14 14 14 14 14 13 12 13 14 15 16 16 16 17 17 17 17 16 16 17 17 16 17 17 18 18 19 20 20 20 20 20 21 21 18 18 19 19 21 21 22 23 25 27 29 30 32 33 33 34 37
8 8 9 10 10 10 10 10 10 9 9 8 9 9 9 10 10 10 11 10 10 11 12 12 13 13 14 15 15 16 16 16 16 15 13 12 12 12 13 12 13 13 13 14 15 16 17 16 16 17 16 16 16 15 16 16 16 17 18 18 18 18 19 20 20 20 20 22 22 21 19 18 18 19 21 22 23 25 28 30 31 32 32 33 35 37 40
9 9 9 10 10 10 10 10 10 9 9 9 9 10 10 10 11 11 11 11 11 12 12 13 13 14 15 15 15 15 15 14 13 12 12 12 11 12 12 13 13 13 14 15 16 16 16 16 15 15 15 15 15 15 16 16 17 18 18 18 18 19 20 20 19 19 20 22 22 21 19 17 17 18 21 23 24 27 30 31 31 32 34 36 38 39 40
9 9 10 10 10 10 10 10 9 9 9 9 9 10 10 10 11 11 11 12 12 12 13 13 14 14 14 15 15 14 13 13 12 11 11 12 12 12 13 13 14 14 15 17 17 16 16 15 14 15 15 15 15 15 16 17 18 18 18 18 19 19 20 19 19 19 20 21 21 20 19 18 19 21 24 26 27 29 33 34 33 34 36 38 39 40 42
9 9 10 10 10 10 10 10 10 9 9 9 10 10 10 11 11 11 12 12 12 13 13 13 13 15 15 14 14 13 12 12 12 12 11 12 12 13 13 14 14 15 16 17 16 16 16 16 15 16 15 15 16 17 17 18 18 18 18 19 19 19 19 19 19 19 19 20 22 21 19 20 22 24 26 28 29 31 34 37 36 36 38 39 40 42 46
9 9 10 10 10 10 10 10 10 10 10 10 10 10 11 11 12 12 13 13 13 13 13 13 14 15 14 13 13 13 12 11 12 12 11 12 13 13 14 14 15 15 16 17 16 16 16 17 17 17 16 16 17 17 17 17 17 18 19 19 19 19 19 18 18 19 19 21 22 22 21 21 23 25 27 29 31 33 36 38 37 35 37 40 42 45 49
9 10 10 10 10 10 11 11 11 11 11 11 11 11 12 12 13 13 13 13 13 13 13 13 13 14 14 13 12 13 13 13 13 12 12 12 13 13 14 15 15 16 17 17 17 17 17 17 18 18 17 17 17 17 17 16 17 18 19 19 19 19 19 18 18 19 20 22 22 22 22 22 24 28 30 31 33 37 38 37 34 34 38 43 46 48 49
10 10 10 11 11 11 11 12 12 12 13 13 12 12 13 13 13 13 13 13 12 12 12 13 13 13 13 12 12 13 13 13 13 13 12 13 13 14 15 16 16 16 17 18 17 18 18 18 18 18 17 17 17 17 17 17 17 19 19 19 19 20 20 19 19 20 22 23 23 23 23 24 26 30 32 34 38 39 37 33 34 38 43 45 47 48 49
10 10 11 11 12 12 12 13 13 13 14 14 13 13 13 13 13 12 12 11 11 11 11 13 12 12 12 12 12 13 13 13 13 13 13 13 13 15 16 16 16 17 17 18 19 19 19 18 17 17 17 17 17 17 17 18 18 19 20 20 20 21 20 19 20 22 24 23 24 25 24 25 29 32 34 38 40 37 33 33 38 43 47 47 47 48 49
11 11 12 12 13 13 13 14 14 14 14 14 13 12 12 12 12 12 11 11 11 10 11 12 12 12 12 12 12 13 13 13 14 14 15 14 15 17 17 16 17 18 18 18 19 19 18 17 17 17 17 17 17 17 18 18 18 19 20 20 20 21 21 20 21 24 24 24 26 27 25 25 31 35 36 39 38 34 34 38 41 44 47 47 48 48 49
12 12 12 13 13 14 14 14 14 14 14 13 13 11 11 12 12 11 11 10 10 10 10 11 12 12 12 12 12 13 13 14 14 15 15 16 17 18 17 17 18 19 19 18 19 18 17 17 17 17 17 17 17 17 17 17 18 19 20 19 20 21 21 22 24 25 25 26 27 26 26 29 35 37 36 37 36 35 38 42 43 44 45 47 47 48 49
12 13 13 13 14 14 14 14 14 14 13 13 12 11 11 12 12 11 11 10 10 10 10 11 11 12 12 13 13 14 14 14 15 15 16 16 17 17 17 18 19 19 19 19 18 18 17 17 18 17 17 17 18 17 17 17 17 19 20 19 21 22 22 23 25 25 26 27 27 27 28 32 36 37 36 37 37 38 40 43 43 44 45 46 47 48 49
13 13 13 14 14 14 14 14 14 14 13 13 12 11 11 11 11 11 11 11 10 10 10 11 11 11 12 13 14 14 14 15 15 16 16 17 17 17 17 18 19 19 19 19 18 18 18 18 18 18 17 17 18 18 18 17 18 20 21 21 21 22 23 24 25 26 27 28 28 28 30 33 36 37 36 37 39 40 42 42 43 44 45 47 48 49 50
13 13 14 14 14 14 14 14 14 14 14 13 12 11 11 11 11 11 11 11 10 10 10 10 11 12 13 14 14 15 15 15 16 16 16 16 16 17 17 18 19 18 18 18 18 18 18 18 18 17 17 18 18 18 18 18 18 19 21 22 22 23 25 27 26 27 29 29 28 30 32 35 38 37 37 38 40 41 42 42 42 44 46 48 48 49 51
13 14 14 14 15 15 15 14 14 14 14 13 13 12 11 11 12 12 12 11 11 11 12 12 12 13 14 15 15 15 15 16 16 16 16 16 17 17 17 19 19 18 18 18 18 18 18 18 18 17 17 18 19 18 18 19 19 20 21 22 23 24 27 28 28 29 30 29 28 31 34 37 38 37 37 39 41 41 42 42 43 45 47 48 49 50 52
14 14 14 15 15 15 15 15 14 14 14 14 13 12 12 12 13 13 13 12 12 12 12 13 14 14 14 15 15 15 16 16 16 16 16 16 17 18 19 19 19 18 18 18 18 18 18 18 18 17 17 18 19 19 19 19 20 21 22 22 24 26 28 29 29 30 30 30 31 34 36 36 36 36 38 40 42 42 43 44 45 46 48 49 50 52 53
14 14 15 15 16 16 16 16 15 15 14 14 14 13 13 13 14 14 13 13 13 13 12 13 14 14 14 14 15 15 16 16 16 16 17 17 18 18 19 19 18 17 17 18 18 18 18 18 18 18 18 19 19 19 19 20 20 21 22 23 26 27 28 29 30 31 30 30 33 37 37 35 35 37 40 42 43 43 44 46 47 48 49 50 52 52 53
15 15 16 16 16 17 17 17 16 15 15 15 15 14 14 14 14 15 14 14 13 13 13 13 13 13 13 14 15 15 16 16 16 17 17 18 18 18 18 18 18 17 18 18 18 18 18 18 18 18 18 18 19 19 19 20 20 22 23 24 26 28 28 30 31 31 31 32 35 38 38 36 37 41 43 43 43 44 45 47 48 49 50 51 52 53 53
16 16 17 17 17 17 17 17 17 16 16 15 15 15 14 15 15 16 15 14 14 13 13 12 12 12 13 14 15 16 16 16 17 17 18 18 17 17 18 18 17 18 19 19 18 18 19 18 18 18 18 19 20 20 20 20 21 23 24 26 27 28 29 31 31 31 33 35 37 38 38 38 40 43 43 43 44 45 46 47 48 49 50 52 53 53 53
17 18 18 18 18 18 18 17 17 17 16 16 16 15 15 15 16 16 15 14 14 13 12 12 12 13 14 15 15 16 17 17 17 18 18 18 17 18 18 18 18 18 19 18 18 18 18 18 18 19 20 20 20 21 21 22 23 23 25 27 28 29 30 31 32 33 35 36 37 38 38 40 42 43 43 43 45 46 47 48 49 50 51 52 53 53 53
19 19 19 19 19 19 19 19 18 18 17 17 17 16 15 16 16 16 15 15 14 14 13 13 13 14 14 15 16 16 17 17 18 18 18 18 18 18 18 18 19 19 19 18 18 18 18 19 19 20 21 21 21 21 22 23 23 24 26 28 30 30 30 31 32 34 35 36 37 38 39 41 42 42 42 43 45 47 48 49 50 51 51 52 53 53 53
20 20 20 20 20 20 20 20 20 19 19 18 18 17 16 16 16 16 16 16 15 15 14 14 14 14 14 15 17 17 17 18 18 18 18 18 18 18 18 18 19 19 19 19 19 19 19 20 20 21 22 22 22 22 23 23 23 25 28 30 30 31 31 32 33 34 35 37 38 39 40 40 41 42 43 44 46 47 49 49 50 51 52 52 52 52 52
20 21 21 21 21 21 21 22 22 22 21 21 20 19 18 17 17 17 17 17 16 15 15 15 14 15 15 15 17 18 18 18 18 18 19 19 18 19 19 19 19 20 20 19 19 20 20 20 21 21 22 23 22 22 23 23 24 26 29 31 31 31 32 33 34 35 36 37 39 40 40 41 42 43 45 46 47 48 50 50 51 51 52 52 52 51 50
20 21 21 21 21 21 21 22 22 23 23 22 22 21 20 19 18 18 18 17 17 16 16 15 15 16 15 15 17 19 19 18 19 19 19 19 19 19 20 20 20 20 21 21 20 20 20 20 21 21 22 23 22 22 22 23 25 28 30 31 31 32 33 34 35 35 36 38 40 40 41 42 44 45 45 46 48 49 50 51 51 52 52 52 51 50 50
20 20 20 21 21 21 21 21 22 22 23 23 23 23 23 22 21 20 19 18 17 17 17 16 16 17 17 16 17 19 20 20 20 20 20 20 20 20 20 20 20 21 21 21 20 20 21 21 21 21 22 23 23 23 23 25 27 28 30 31 32 32 34 34 35 36 38 40 40 41 42 43 44 45 46 47 49 50 50 51 52 52 51 51 50 49 50
19 20 20 20 21 21 21 22 22 22 22 23 23 23 24 23 23 22 21 19 18 17 17 18 17 17 18 18 18 20 21 21 21 21 21 20 21 21 21 21 21 21 21 21 21 21 21 22 22 22 22 23 24 23 24 27 28 29 31 32 33 33 35 35 36 38 39 41 41 42 42 43 44 45 46 48 49 50 51 51 52 52 51 50 49 49 50
19 19 19 20 21 21 22 22 22 22 22 22 22 23 24 24 24 23 23 22 20 18 18 18 18 18 19 19 19 21 22 22 21 21 21 21 21 21 21 21 21 21 21 21 21 21 22 23 22 22 22 23 23 24 25 27 28 30 32 33 33 34 35 36 38 40 41 41 42 42 42 43 45 46 47 48 50 50 51 52 52 51 50 49 48 49 50
19 19 19 20 21 21 22 22 23 22 22 22 22 23 24 24 24 23 23 23 22 21 19 19 19 20 20 20 21 23 23 22 22 22 22 22 23 22 22 22 21 21 21 22 21 21 22 23 22 22 23 23 23 24 26 27 29 31 32 33 34 35 36 38 39 41 41 42 42 42 43 44 45 46 48 49 49 50 51 52 51 50 49 48 48 49 50
19 19 19 20 21 22 22 22 23 22 22 22 23 23 24 25 24 24 24 23 22 22 21 20 20 22 22 21 22 23 23 23 23 23 23 23 23 23 22 22 21 21 21 22 21 21 22 23 23 23 23 23 23 25 26 28 30 32 33 33 34 36 37 39 40 41 41 42 43 43 44 45 47 48 49 49 50 51 51 52 51 50 49 48 49 49 49
19 19 20 20 21 22 21 22 22 22 22 23 24 24 24 25 25 24 24 23 22 22 22 22 22 23 23 23 23 24 24 24 24 24 23 23 23 23 23 22 22 21 22 22 21 22 23 23 23 23 23 23 24 25 27 29 31 33 33 34 35 37 38 40 41 41 41 42 43 44 45 46 48 50 50 50 51 52 52 51 50 49 48 48 48 48 48
19 20 20 20 21 21 22 22 22 22 23 24 24 24 25 25 26 25 25 24 23 23 23 23 23 24 24 24 24 24 25 25 24 24 24 24 23 23 23 22 22 22 21 21 22 22 23 23 23 23 24 24 25 27 29 30 32 34 34 34 36 38 39 40 41 41 41 42 43 43 45 47 49 50 50 51 51 52 52 51 49 48 48 48 48 48 48
20 20 21 20 20 21 22 22 22 23 23 24 25 25 25 25 26 26 26 25 24 24 24 24 25 25 25 25 25 25 26 25 24 23 23 24 23 23 23 22 22 21 21 21 22 23 23 23 23 24 25 25 26 28 30 32 34 35 35 35 37 39 40 41 42 42 41 42 43 44 46 48 49 49 50 50 51 51 51 50 49 48 48 48 47 47 48
20 20 20 20 21 22 22 23 23 24 24 24 25 25 25 26 26 27 27 26 25 25 25 26 26 26 26 26 26 25 25 26 25 24 23 24 24 23 22 22 22 21 21 22 23 23 23 23 24 25 25 26 26 28 30 33 35 35 35 37 38 39 41 42 42 42 42 42 43 45 47 48 49 49 50 50 51 51 50 49 48 47 47 47 47 47 48
20 20 21 21 21 23 23 23 24 24 24 24 25 26 26 27 27 27 27 26 26 26 26 27 28 27 27 27 26 26 25 25 25 24 23 24 24 23 22 22 22 21 21 22 23 23 23 23 24 25 26 26 27 29 32 34 36 36 36 38 39 40 41 42 42 41 42 43 44 46 47 48 49 49 50 50 50 50 49 48 47 47 46 46 46 47 48
21 21 21 21 22 23 23 23 24 24 24 25 26 26 26 27 28 28 27 27 27 27 27 28 29 28 28 27 27 26 26 25 25 24 24 24 23 22 21 21 21 21 22 23 23 23 23 24 25 25 26 27 29 31 34 36 36 36 37 39 40 41 42 42 42 42 42 43 45 46 48 48 49 49 50 50 50 50 49 48 46 46 46 46 46 47 47
21 22 22 21 22 24 23 23 24 25 24 25 26 26 27 28 28 28 28 28 28 28 28 29 29 29 28 28 27 26 26 25 25 24 24 23 23 22 21 21 21 22 22 22 23 23 24 25 25 26 27 29 31 33 35 36 36 36 38 39 41 42 42 42 42 42 43 44 46 47 48 48 49 49 50 50 49 49 48 47 46 45 46 46 46 47 47
21 22 22 21 22 24 23 23 24 24 24 25 26 27 27 28 29 29 29 29 29 29 30 30 29 29 28 28 27 26 26 25 24 23 23 23 22 21 21 21 22 22 23 23 23 24 25 26 26 27 28 30 32 34 36 37 36 37 39 40 41 42 42 42 42 43 44 45 46 48 48 48 49 49 50 50 49 48 47 46 45 45 45 46 46 47 48
21 22 22 21 22 23 24 23 24 24 24 25 26 27 28 29 29 29 29 29 30 30 30 30 29 28 28 28 27 27 26 25 24 23 23 22 21 21 22 22 22 22 22 22 24 25 25 26 27 28 30 32 34 35 37 37 37 38 39 41 42 42 42 42 43 44 44 46 47 48 48 48 49 49 49 49 49 47 46 45 45 45 45 45 46 47 48
21 22 22 22 22 23 24 23 23 24 25 26 27 28 29 29 30 29 30 30 30 30 30 30 29 29 28 28 27 26 26 25 23 22 22 21 21 22 22 22 22 22 22 22 24 26 26 27 28 29 31 33 35 36 37 37 38 39 40 41 42 42 43 43 44 44 45 46 47 48 48 48 49 49 49 48 48 47 46 45 45 45 45 45 46 47 48
22 22 22 22 22 23 23 24 24 24 25 26 27 28 29 30 30 30 30 30 31 31 30 29 29 29 29 28 27 26 25 24 23 22 22 22 22 22 22 22 22 23 23 23 25 26 27 28 29 31 33 34 36 37 37 38 38 40 41 42 42 43 43 43 44 44 45 46 47 47 48 48 49 49 48 48 47 47 46 45 45 44 45 45 46 47 48
22 22 22 22 23 23 24 24 25 25 26 27 28 29 30 30 31 30 30 31 31 31 30 29 29 29 28 28 27 25 24 23 22 21 22 22 21 21 21 22 22 23 23 24 26 27 28 29 31 33 34 35 36 37 38 38 39 40 41 42 42 43 44 44 44 45 46 46 47 47 48 48 48 48 48 47 47 46 45 45 44 44 44 45 47 48 48
22 22 23 23 23 23 24 25 26 26 26 27 28 29 30 31 31 31 31 31 31 31 30 30 30 29 28 27 26 24 23 22 22 22 22 21 21 20 21 22 22 23 24 25 27 28 30 31 32 34 36 36 37 38 38 39 40 41 41 42 42 43 44 44 44 45 46 47 47 47 47 48 48 48 47 47 46 45 44 44 44 44 44 45 47 47 48
22 22 23 23 23 24 25 26 26 27 28 28 29 30 31 31 31 31 31 31 31 31 30 30 30 29 28 26 24 23 22 22 22 22 21 21 20 20 21 22 23 24 25 27 28 30 31 32 33 35 36 37 38 38 38 39 40 41 41 42 43 44 43 43 44 45 46 47 47 47 48 48 47 47 47 47 46 45 44 44 44 44 44 45 46 47 48
Wind_Direction
312 315 319 321 323 325 325 326 327 329 331 329 326 325 322 320 320 321 328 331 327 325 324 324 326 328 324 321 322 321 318 318 317 316 316 316 315 314 313 314 313 313 315 313 313 315 312 309 310 310 311 311 308 309 311 311 309 309 309 310 312 310 306 305 305 306 310 311 306 305 307 309 312 311 311 310 308 309 306 302 304 304 301 301 300 299 302
314 317 321 323 324 325 325 326 327 330 333 333 330 328 325 323 321 322 331 335 332 328 326 325 328 327 321 318 320 320 319 319 318 318 319 318 316 315 314 316 315 314 315 311 311 313 311 310 311 310 309 310 308 309 311 311 311 311 309 310 312 310 308 310 310 310 312 313 310 310 309 311 313 312 312 311 310 311 308 305 305 303 301 301 300 299 301
320 322 323 324 325 325 324 326 328 330 334 335 332 330 328 325 322 323 331 339 339 331 325 325 325 324 322 320 320 319 319 321 320 320 321 319 318 316 314 315 314 312 313 309 308 308 307 307 310 309 309 309 308 309 310 310 311 312 310 309 310 310 309 310 311 310 312 312 311 311 312 312 312 311 312 311 312 312 310 308 306 303 305 306 301 300 302
324 324 324 324 324 324 324 326 329 331 334 336 334 331 329 327 325 324 326 335 341 335 329 327 324 323 323 321 320 320 320 321 320 319 320 319 317 315 312 312 311 310 310 308 307 307 306 307 309 309 310 309 308 309 311 311 311 312 311 311 311 311 310 310 307 305 306 308 308 311 313 311 310 312 313 311 312 313 311 309 306 304 308 307 303 306 309
322 322 323 323 323 324 325 327 330 332 334 336 334 331 330 326 323 324 323 327 332 331 332 332 326 323 323 322 323 322 321 321 320 319 319 317 315 313 311 311 311 310 311 310 310 310 308 308 310 310 309 310 311 311 312 312 312 313 313 313 313 311 310 312 311 308 308 309 309 311 312 310 311 314 315 313 313 314 313 311 309 310 310 306 308 313 312
320 321 322 324 325 327 329 331 332 332 333 334 331 328 330 326 321 323 323 323 325 325 328 329 326 324 324 323 323 322 322 322 321 319 317 315 314 313 313 312 310 311 313 313 311 313 313 311 312 312 312 312 312 313 314 314 314 314 315 315 316 313 311 314 315 312 310 309 308 308 310 312 315 316 316 317 316 315 315 312 312 314 311 307 311 314 311
321 323 325 328 330 332 333 332 331 330 329 329 326 325 326 325 323 323 322 323 324 322 322 324 324 322 323 323 323 322 323 323 319 317 316 315 314 314 315 316 315 316 317 314 313 316 317 313 313 315 315 314 314 315 317 316 313 314 315 316 317 315 313 314 314 311 311 311 310 310 311 314 318 318 318 320 319 319 319 316 315 315 311 309 312 312 311
326 329 331 333 334 333 333 332 330 328 327 324 324 325 323 322 323 323 322 323 323 322 322 321 321 319 320 323 322 321 323 323 319 317 318 317 316 316 317 319 319 317 316 316 317 321 321 317 316 319 320 319 319 319 319 318 316 316 317 318 318 317 316 315 315 314 316 316 314 314 314 316 319 320 321 321 320 321 321 318 317 316 312 312 313 312 311
335 336 336 336 335 333 332 330 328 328 327 324 323 324 323 322 322 321 321 321 320 321 320 319 320 322 323 324 322 321 324 322 318 319 321 320 319 320 320 322 322 318 317 320 325 329 329 324 322 322 322 321 321 320 320 321 320 319 320 319 318 318 317 317 317 317 317 316 315 317 319 320 321 323 323 322 321 322 320 318 318 317 315 315 316 314 312
341 339 337 335 333 331 330 329 329 328 327 325 323 323 322 322 321 321 320 319 320 322 320 319 322 322 323 324 324 322 322 322 320 321 323 324 326 325 325 326 325 324 326 329 331 330 328 324 323 323 320 319 320 321 322 323 322 321 321 320 319 320 318 318 319 318 316 318 320 320 318 318 320 323 322 321 322 322 320 318 318 318 318 318 316 315 313
341 338 336 334 333 333 332 331 330 328 326 325 325 324 322 321 321 321 321 320 321 322 322 323 324 322 322 324 323 321 323 325 328 329 328 330 333 331 330 330 329 329 330 330 329 326 324 323 322 322 322 322 324 324 324 326 325 324 322 320 319 319 318 318 319 317 317 320 322 319 316 316 319 321 322 321 322 323 322 319 320 321 322 320 317 315 315
341 339 338 338 337 336 335 333 331 329 327 325 325 324 323 322 322 321 322 321 320 321 323 324 323 322 322 323 322 323 327 329 332 333 332 333 335 335 334 332 329 329 327 326 325 325 324 325 324 325 327 327 327 327 327 327 326 325 324 322 321 320 319 320 320 318 317 321 324 322 320 318 317 321 323 321 320 321 320 319 320 322 322 321 319 316 316
345 344 343 343 342 341 340 338 336 333 329 326 326 326 325 323 323 322 322 321 321 323 323 321 321 322 322 323 324 326 329 330 331 332 331 331 333 335 335 332 329 327 326 325 326 325 324 325 326 327 328 326 325 326 327 327 326 325 325 324 322 322 321 322 321 320 320 323 326 324 321 320 319 321 323 322 320 321 321 320 321 323 322 321 319 317 318
352 351 350 350 349 348 346 344 341 338 333 329 328 328 326 325 324 322 322 321 321 323 323 320 321 324 324 325 326 326 327 328 329 329 329 330 331 332 332 331 328 327 327 327 327 326 326 326 325 326 325 322 322 322 323 324 326 326 325 325 325 324 324 324 324 324 324 324 323 320 317 320 323 323 322 322 322 322 322 320 320 322 323 321 319 318 320
358 357 357 356 354 352 350 347 344 340 336 332 330 329 327 326 324 322 321 321 320 322 324 323 322 323 324 326 328 327 325 326 326 327 329 329 328 330 331 330 328 328 328 329 327 326 327 327 325 325 323 322 322 322 321 323 324 324 324 324 325 325 325 327 326 326 327 325 323 320 316 317 323 323 321 322 322 321 320 317 318 322 324 324 322 321 322
3 1 359 357 355 353 350 348 344 341 337 333 330 328 327 325 323 320 319 320 320 320 324 325 323 323 323 326 329 330 327 327 328 328 328 327 326 328 329 330 329 328 328 328 326 325 326 326 324 323 322 322 322 321 322 323 324 323 323 323 326 327 326 326 325 325 327 327 323 320 318 319 322 321 320 322 322 320 318 316 316 322 326 326 324 323 322
2 360 356 354 352 350 348 345 342 339 337 333 329 327 326 325 324 322 320 323 325 324 325 327 324 323 324 326 329 331 328 327 328 327 326 326 326 327 328 329 327 327 328 328 325 324 325 325 323 323 323 324 323 322 323 324 325 325 325 325 329 331 328 329 330 327 327 325 321 319 319 321 322 321 320 323 322 321 320 317 318 324 326 326 325 324 324
358 356 353 351 348 346 344 342 340 338 336 334 330 328 328 328 327 325 324 326 329 329 331 332 329 327 329 329 330 331 330 328 327 324 324 326 327 327 327 327 326 326 327 328 326 326 326 325 325 326 324 324 325 325 326 327 325 326 327 326 329 331 329 330 331 329 327 325 321 319 318 320 322 322 323 326 325 322 322 320 320 324 325 325 326 326 326
355 353 351 349 347 345 343 342 340 339 338 337 334 332 333 334 333 331 330 330 331 331 333 334 334 333 332 329 328 329 329 328 327 325 325 326 327 327 326 326 327 327 326 326 327 327 327 326 327 327 325 326 327 326 328 328 326 326 328 328 329 330 328 328 329 329 327 324 321 320 319 322 327 326 326 329 328 324 323 322 322 324 325 326 328 327 327
354 352 350 348 347 346 345 344 343 343 342 342 340 339 340 340 338 336 334 334 337 339 338 336 337 338 337 335 333 331 329 327 326 327 327 325 325 327 327 327 329 328 327 328 328 329 329 328 328 328 327 326 326 326 328 330 329 328 329 328 329 328 327 328 329 328 327 325 325 324 321 324 330 330 327 329 329 325 323 323 324 325 327 328 328 327 327
356 354 353 352 351 350 350 349 348 347 346 345 345 344 345 346 345 343 341 337 337 340 339 337 338 339 339 340 338 334 332 331 329 329 328 325 326 329 329 328 330 331 330 330 329 328 329 329 328 328 327 326 327 327 326 326 328 330 330 329 328 328 328 328 328 328 328 325 325 326 323 325 330 331 327 328 328 326 325 326 326 327 328 327 326 326 327
1 360 359 357 356 355 354 354 353 352 350 349 348 349 349 349 348 348 348 347 346 345 342 340 341 342 341 340 338 335 334 333 331 330 328 326 327 330 329 329 332 332 331 330 329 328 329 329 327 327 328 327 328 328 327 324 324 327 329 329 328 329 330 327 325 327 327 323 323 326 327 328 330 330 328 328 329 328 328 328 327 327 328 327 326 327 328
5 4 3 1 360 359 358 357 356 355 354 353 351 351 352 351 349 349 350 352 353 350 345 340 339 340 340 339 338 335 333 332 331 331 330 328 328 330 331 332 332 330 330 332 330 328 330 330 327 327 328 327 326 327 329 329 326 325 328 329 328 332 333 329 325 328 329 325 326 330 330 330 330 329 328 330 330 329 329 329 328 328 328 327 327 327 328
8 7 5 4 3 2 0 359 358 357 357 355 353 352 352 351 347 345 344 344 343 341 340 337 336 336 336 336 335 334 333 333 332 331 331 330 329 329 331 332 332 330 331 333 330 328 328 328 326 327 328 326 326 327 328 328 327 327 328 328 328 332 334 330 327 330 329 326 330 334 332 329 329 328 329 331 330 329 329 330 329 329 329 328 328 328 328
10 9 8 6 5 4 2 1 359 358 357 356 354 351 350 347 344 341 339 337 335 335 336 336 336 336 335 334 335 335 334 334 333 332 332 331 329 329 330 331 331 331 330 331 331 330 329 328 329 330 329 328 328 328 326 327 327 327 328 329 328 329 330 329 329 329 327 325 329 333 331 328 328 329 331 331 330 330 330 330 329 329 329 329 329 328 328
12 11 10 8 6 4 3 1 360 358 357 355 353 350 348 346 345 342 339 336 335 336 337 336 336 337 338 338 338 338 337 337 336 334 333 332 330 330 331 331 331 331 330 330 332 333 332 332 333 332 329 329 330 330 328 329 330 329 329 330 328 327 329 329 328 328 327 327 330 332 331 328 329 331 332 331 330 331 331 331 330 329 329 329 329 329 329
16 14 12 9 8 6 5 4 3 1 0 359 356 353 350 349 348 345 342 340 339 339 340 339 338 339 342 343 343 341 340 339 337 335 334 334 333 332 332 331 332 333 332 331 332 334 336 336 334 332 330 331 332 332 330 331 331 330 329 330 330 330 330 330 329 329 330 331 332 333 331 329 330 331 331 331 331 332 331 331 330 330 330 330 330 329 329
20 17 14 12 11 9 7 6 6 5 3 2 0 359 356 354 352 349 346 343 342 342 344 345 343 341 342 343 344 343 341 340 337 336 336 336 335 335 333 333 335 335 335 334 335 336 336 335 333 331 331 331 332 330 329 330 331 330 331 333 334 332 331 331 331 331 330 331 332 332 330 328 329 330 330 331 332 332 331 331 330 330 331 331 330 330 329
22 20 17 15 14 12 10 9 7 5 3 1 359 358 358 356 355 353 352 350 349 349 351 351 347 343 341 341 341 341 341 340 339 338 338 337 337 338 337 337 338 337 337 338 338 338 337 336 335 333 331 330 330 328 328 330 331 332 333 335 334 333 332 332 332 331 330 331 332 331 330 329 329 329 330 332 332 332 331 330 331 331 331 331 330 330 330
24 22 20 19 17 16 14 12 10 7 5 1 358 357 357 356 355 356 356 355 353 351 349 348 345 343 342 343 342 341 341 341 340 340 340 340 340 339 338 338 338 338 338 339 339 337 336 336 336 334 333 332 332 330 330 331 331 333 336 336 334 333 333 333 333 331 330 331 331 331 330 329 329 330 331 332 332 332 331 331 331 331 331 331 331 330 330
26 24 23 22 21 20 19 17 15 12 9 6 3 1 358 356 355 355 354 353 351 350 350 350 347 343 342 343 344 342 340 340 340 340 340 340 340 339 339 339 339 340 341 340 339 337 336 335 334 334 334 335 334 333 332 333 332 333 335 335 334 333 334 334 333 332 331 331 332 331 330 330 330 331 332 332 332 332 332 331 331 331 331 331 331 330 331
26 25 24 23 23 23 22 22 20 18 16 14 12 9 5 1 359 357 355 352 351 350 349 349 347 342 340 341 343 343 341 339 339 339 339 339 339 339 340 340 340 340 339 338 336 336 335 335 335 336 335 335 335 334 334 334 333 333 334 335 334 334 335 334 333 333 332 333 333 332 331 331 332 332 332 332 332 332 332 331 331 331 331 331 331 331 331
25 24 24 24 24 24 24 23 22 21 21 21 20 17 13 9 4 0 357 355 353 351 349 348 346 344 341 340 341 343 342 340 338 338 338 338 338 337 337 338 338 337 338 336 334 334 334 335 336 336 336 335 336 335 335 335 335 334 335 335 334 334 334 334 333 333 333 334 333 332 331 332 332 332 332 332 332 332 332 332 332 332 331 331 331 331 332
23 23 24 24 24 23 22 20 19 20 20 20 19 18 16 13 9 4 360 357 355 355 354 352 348 345 344 341 341 343 344 341 339 339 338 337 337 336 335 335 335 335 336 336 335 334 335 335 335 335 335 336 336 336 336 336 336 336 336 335 335 334 334 334 334 334 334 334 333 332 331 332 332 333 333 332 332 332 332 332 333 332 332 332 332 332 333
22 22 22 22 21 20 19 17 16 16 17 17 17 16 15 13 12 9 5 1 359 358 356 354 352 349 346 344 342 343 343 341 340 339 338 336 336 335 334 334 335 334 333 333 334 334 334 334 334 334 334 335 336 336 336 336 337 337 336 335 335 335 335 335 335 334 334 333 333 333 333 333 334 334 333 333 333 333 333 333 333 333 333 333 333 333 334
19 19 19 19 18 17 16 15 13 13 13 13 13 13 12 10 10 10 9 8 6 3 358 355 354 350 347 344 342 342 342 340 339 338 337 336 335 334 333 334 335 334 333 333 335 335 334 333 334 335 335 335 336 337 337 337 337 337 336 336 336 336 335 335 334 334 334 334 334 334 334 335 334 334 334 334 333 334 334 334 334 334 334 334 334 334 335
18 17 17 16 15 13 13 12 11 10 10 10 9 8 7 7 6 6 7 7 7 5 2 357 354 350 347 343 341 341 341 340 338 338 337 336 335 334 334 335 334 333 334 334 334 333 334 335 336 336 336 337 338 338 338 338 338 337 337 336 336 336 335 335 335 334 334 334 335 335 335 335 335 335 335 334 334 335 335 335 335 335 335 335 335 335 335
16 14 13 11 10 10 9 8 8 9 8 7 5 5 4 4 4 3 2 2 2 1 360 357 353 350 347 343 342 342 341 339 337 337 337 336 335 334 335 336 335 333 334 334 333 333 335 336 336 337 337 337 339 339 339 338 338 338 337 337 336 336 336 335 335 335 335 335 336 336 336 336 335 335 335 335 335 335 335 335 335 335 335 335 335 336 336
11 9 8 8 8 7 6 5 6 7 6 4 3 3 2 2 2 1 359 359 358 356 356 355 352 350 348 345 343 343 342 339 337 337 337 337 336 336 335 335 335 334 333 333 333 334 335 335 335 336 336 336 337 338 339 339 339 339 338 338 337 336 336 336 336 336 335 335 336 336 337 336 335 336 336 336 336 336 336 336 336 336 336 336 336 336 337
7 5 5 5 5 5 4 4 3 3 2 2 2 2 1 1 1 359 357 357 356 354 353 352 349 348 348 345 342 341 342 341 338 336 336 336 336 336 335 335 335 335 334 333 334 335 335 335 335 336 337 338 338 339 339 340 339 339 338 338 337 337 337 336 336 336 336 336 336 336 336 336 336 336 336 336 336 336 336 336 336 336 336 336 337 337 337
3 2 2 3 3 3 3 2 1 0 360 0 0 0 360 359 358 357 356 356 354 352 351 350 348 346 346 344 341 340 341 340 338 337 336 336 337 338 336 335 335 335 335 334 334 335 336 336 336 337 339 340 339 339 339 339 339 339 338 338 337 337 337 337 337 337 337 336 336 336 336 337 337 337 337 337 337 337 337 337 337 336 337 337 337 338 338
2 1 2 2 2 1 0 360 359 359 358 358 358 358 357 356 356 356 356 355 352 349 349 349 347 344 343 343 341 339 339 339 339 338 337 337 338 338 336 335 336 337 335 334 335 336 337 336 336 337 340 341 339 338 339 339 339 338 338 338 337 337 337 337 337 337 337 337 337 337 337 337 337 337 337 337 337 337 337 337 337 337 337 337 338 338 339
1 360 360 359 359 358 358 358 358 358 357 357 357 356 355 354 354 354 353 352 351 349 347 347 345 343 343 342 341 339 339 339 339 339 338 338 337 337 337 338 337 336 335 336 337 337 337 336 336 338 341 340 339 339 339 339 338 338 338 337 337 337 338 338 338 337 337 337 337 338 338 338 338 338 338 338 338 338 337 337 337 337 338 338 338 339 339
356 356 356 356 356 356 356 355 356 357 356 355 355 355 353 352 352 351 350 350 349 348 346 346 345 344 342 342 341 340 339 339 339 339 339 339 338 338 339 339 337 336 336 337 338 338 337 337 338 340 341 340 339 339 339 338 338 338 337 337 337 338 338 338 338 337 337 338 338 338 338 338 338 338 338 338 339 338 338 338 338 338 338 339 339 339 340
353 354 355 355 354 355 355 354 354 355 355 352 352 353 352 351 350 350 348 347 347 346 345 345 344 343 341 341 341 340 339 339 340 340 339 339 339 340 339 338 337 338 338 339 339 338 338 338 340 342 340 339 338 338 338 338 338 338 337 337 337 338 338 338 338 338 338 338 339 339 339 339 339 339 339 339 339 339 339 339 339 339 339 339 339 340 340
353 353 354 355 354 354 355 354 352 352 352 351 351 352 351 350 349 348 347 346 345 345 344 344 344 342 341 341 341 340 340 340 340 340 339 340 340 340 339 339 339 340 341 340 339 338 338 340 342 341 339 338 338 337 337 337 338 338 337 337 337 338 338 338 338 338 339 339 339 339 339 339 340 339 339 339 340 340 340 339 339 340 340 340 340 340 341
352 352 353 355 353 352 353 353 351 351 351 350 350 350 350 348 347 347 346 346 345 345 344 344 343 342 341 340 341 340 340 341 341 340 341 341 341 340 340 341 341 341 341 340 339 338 340 342 342 340 338 338 337 337 337 337 338 338 338 337 338 338 338 338 338 338 339 340 339 339 339 340 340 340 340 340 340 340 340 340 340 340 340 340 340 341 341
351 350 352 354 352 351 352 352 351 350 350 350 349 349 348 347 347 347 346 345 345 345 344 344 343 342 341 341 340 340 340 342 342 341 342 343 342 341 342 342 342 342 341 340 339 340 342 342 340 338 338 337 337 337 337 337 338 338 338 338 338 338 338 338 338 339 340 340 340 340 340 340 340 340 340 341 341 341 341 341 341 341 341 341 341 342 342
353 352 352 353 351 351 351 351 350 349 349 349 348 348 347 347 347 347 345 345 345 345 344 344 344 342 341 341 341 341 341 342 342 342 343 344 343 342 343 343 342 341 341 340 341 342 342 340 338 338 338 337 337 337 337 337 338 338 338 338 338 338 339 338 339 339 340 340 340 340 340 340 340 340 341 341 341 341 341 341 342 342 342 342 342 342 343
352 352 351 351 350 350 350 349 349 348 348 347 347 347 346 346 346 346 345 345 345 345 344 344 343 342 341 342 343 343 343 343 343 343 344 344 343 343 344 342 341 341 342 342 342 342 341 339 339 338 338 338 338 337 337 338 338 338 338 338 339 339 339 339 339 340 340 340 340 340 340 341 341 341 341 342 342 341 342 342 343 343 343 343 343 343 344
349 349 349 348 348 348 348 348 348 348 347 346 346 346 346 346 346 346 345 345 345 345 345 344 343 343 343 343 344 343 343 344 345 344 343 342 344 345 343 341 341 343 345 344 342 341 340 340 340 339 338 338 338 338 338 338 338 338 338 339 339 339 339 340 340 340 340 340 340 340 341 341 341 341 342 342 342 342 343 343 344 344 344 344 344 344 344
346 347 346 346 346 347 346 347 347 347 346 346 346 345 345 345 346 346 345 345 345 345 345 344 344 344 344 344 344 344 345 345 344 344 343 343 343 343 342 341 342 343 343 342 341 341 340 340 340 339 339 338 338 338 338 338 339 339 340 340 340 339 340 340 340 340 340 340 341 341 341 341 341 342 342 343 343 344 344 344 344 344 345 345 345 345 345